SPOT 7

Satellite information

Favourite Embed

Satellite Type and Status

PAYLOADIN ORBIT

Key statistics

Satellite SPOT 7 at a glance.

Uptime

4087

Days in orbit

Revolutions

≈ 14.6

Per day

Orbit

SSO

Sun Synchronous Orbit

Inclination

98.1

Latest

Satellite identification and parameters

Extended collection of information and parameters for SPOT 7.

Object identification

Identified? True

Debris? False

Object name: SPOT 7

International designator: 2014-034A

Object number (NORAD): 40053

Object ID (CCSDS): 40053

Country: AZERBAIJAN (AZER)

Current information (Y/N): Y

RCS size: LARGE

Orbital parameters

Period: 98.593 minutes

Inclination: 98.1045 deg

SMA: 7069.526 km

Apoapsis: 692.444 km

Periapsis: 690.337 km

RAAN: 314.1909 deg

Eccentricy: 0.00014903

Argument of periapsis: 85.1379 deg

Mean anomaly: 274.9992 deg

Mean motion: 14.60553019 rev/day

Mean motion (dot): 0.00000849 rev/day2

B* drag term: 0.00018415213 1/REarth

Two-line elements (TLE)

Creation date: Sept. 7, 2025, 3:09 a.m.

Reference frame: TEME

Reference center: EARTH

Epoch: Sept. 6, 2025, 10:42 p.m. UTC

TLE line 0: 0 SPOT 7

TLE line 1: 1 40053U 14034A 25249.94588358 .00000849 00000-0 18415-3 0 9999

TLE line 2: 2 40053 98.1045 314.1909 0001490 85.1379 274.9992 14.60553019595785

Live tracking on map

Real-time ground track for satellite SPOT 7.

In-orbit conjunctions

There are no conjunctions computed for SPOT 7, at the moment. Check back to stay up to date, as we update our databases every day.

Go to all conjunctions

Associated space launch

SPOT 7 was lifted into orbit during the mission ‘PSLV-CA | SPOT-7, CanX-4, CanX-5, AISat, VELOX-I’, on board a PSLV space rocket.

The launch took place on June 30, 2014, 4:22 a.m. from Satish Dhawan Space Centre First Launch Pad.

For more information about the launch, click the button.

Launch to space PSLV-CA | SPOT-7, CanX-4, CanX-5, AISat, VELOX-I
PSLV-CA | SPOT-7, CanX-4, CanX-5, AISat, VELOX-I

Agency: N/A

Status: Launch Successful

Launch date: June 30, 2014, 4:22 a.m. UTC

Rocket: PSLV

Launch pad: Satish Dhawan Space Centre First Launch Pad

Location: Satish Dhawan Space Centre, India

...

Latest news about this satellite

There are no fresh news available about this satellite. Check back as we update our databases every day.


Newsletter sign-up

Weekly statistics, charts and insights to help you stay on top of the space industry.